www.pogodaiklimat.ru

Погода и климат >> Архив погоды >> Россия >> Нижегородская область >> Большое Болдино


ПОГОДА в Большом Болдино

  • Прогноз погоды в Большом Болдино
  • Монитор погоды в Большом Болдино
  • Климат города

АРХИВ ПОГОДЫ в Большом Болдино

Время (UTC), дата Ветер
(напр.,м/с)
 
Видим.   Явления Облачность Т
(С)
Тd
(С)
f
(%)
Тe
(С)
Тes
(С)
Комфортность P
(гПа)
Po
(гПа)
Тmin
(С)
Tmax
(С)
R
(мм)
R24
(мм)
S
(см)
09 17.11 З 5-8
{8}
20 км 10/10 540 м
[Sc]
+1.1 0.0 92 -5 -5 1019.9 995.9
12 17.11 З 3-5
{10}
20 км {снег} 10/10 360 м
[Sc]
+1.3 -1.3 83 -3 -3 1020.9 996.9
15 17.11 З 5-7
{7}
20 км 10/8 450 м
[Sc Ac und]
+0.5 -1.2 88 -6 -6 1022.2 998.0 +1.6 0.3
18 17.11 ЮЗ 3-6
{8}
20 км 10/6 480 м
[Sc Ac und]
+0.4 -2.3 82 -4 -4 1021.8 997.6
21 17.11 ЮЗ 3-6
{9}
20 км 9/0
[Ac trans]
+0.1 -2.3 84 -5 -5 1021.2 997.1
00 18.11 ЮЗ 5-7
{13}
20 км 10/0
[Ac und]
-0.5 -3.0 83 -7 -7 1021.3 997.1
03 18.11 ЮЗ 5-9
{12}
20 км 10/10 480 м
[Sc]
-0.9 -3.8 81 -7 -7 1020.0 995.8 -0.9
06 18.11 ЮЗ 4-8
{11}
20 км 10/4 600 м
[Sc Ac und]
-0.4 -2.8 84 -6 -6 1019.9 995.7 -1.1
09 18.11 ЮЗ 4-8
{9}
20 км {снег} 10/10 450 м
[Sc]
+0.3 -1.4 88 -5 -5 1020.4 996.3
12 18.11 ЮЗ 3-6
{9}
20 км {снег} 10/10 420 м
[Sc]
+0.9 -1.1 86 -4 -4 1020.1 996.1
15 18.11 ЮЗ 3-6
{7}
20 км 10/10 330 м
[Sc]
+0.8 -0.9 88 -4 -4 1020.4 996.3 +1.4 0.0
18 18.11 ЮЗ 2-3
{6}
20 км 10/10 360 м
[Sc]
+0.7 -1.0 88 -3 -3 1020.6 996.5
21 18.11 Ю 2-4
{6}
20 км 10/10 360 м
[Sc]
+0.8 -0.9 88 -3 -3 1020.4 996.3
00 19.11 Ю 2-5
{6}
20 км 10/10 330 м
[Sc]
+0.7 -0.7 90 -3 -3 1020.2 996.1
03 19.11 Ю 2-6
{7}
20 км {снег} 10/10 330 м
[Sc]
+0.4 -1.0 90 -3 -3 1019.8 995.7 +0.3 0.0
06 19.11 Ю 2-5
{7}
20 км {снег} 10/10 360 м
[Sc]
+0.2 -1.5 88 -3 -3 1019.7 995.6 -0.1
09 19.11 Ю 2-4
{7}
20 км 10/4 600 м
[Sc Ac und]
+1.2 -2.0 79 -2 -2 1019.0 995.0
12 19.11 ЮВ 2-5
{7}
20 км 10/10 600 м
[Sc]
+1.5 -1.3 82 -2 -2 1017.7 993.7
15 19.11 ЮВ 2-4
{5}
4000 м слабый снег 10/10 360 м
[Sc]
+0.8 -0.3 92 -3 -3 1017.0 992.9 +1.9 0.0
18 19.11 ЮВ 3-4
{5}
4000 м слабый снег 10/10 300 м
[Sc]
+0.4 -0.5 94 -4 -4 1015.4 991.4
21 19.11 ЮВ 2-4
{5}
4000 м слабый снег 10/10 330 м
[Sc]
+0.4 -0.2 96 -3 -3 1014.4 990.4
00 20.11 Ю 2-5
{6}
10 км {снег, дождь} 10/10 300 м
[Sc]
+2.5 +2.0 96 -1 -1 1013.1 989.3
03 20.11 Ю 3-5
{7}
20 км 10/10 180 м
[St]
+2.6 +2.1 97 -2 -2 1012.7 988.9 +0.3 3
06 20.11 Ю 2-4
{7}
20 км {дождь} 10/10 210 м
[Sc]
+3.1 +2.1 93 -0 -0 1012.8 989.1
09 20.11 Ю 2-4
{5}
20 км в посл. час дождь 10/10 210 м
[Sc]
+3.8 +2.8 93 +1 +1 1013.7 990.1
12 20.11 Ю 1-3
{4}
20 км {дождь} 10/10 240 м
[Sc]
+4.4 +3.4 93 +3 +3 1014.0 990.4
15 20.11 Ю 1-2
{3}
4000 м слабый дождь 10/10 300 м
[Sc As trans]
+3.8 +2.8 93 +2 +2 1014.1 990.5 +4.5 3
18 20.11 ЮВ 1-2
{4}
4000 м слабый дождь 10/10 330 м
[Sc]
+4.2 +3.5 95 +3 +3 1013.7 990.1
21 20.11 ЮВ 4-5
{6}
20 км {дождь} 10/10 480 м
[Sc]
+4.4 +3.7 95 -0 -0 1011.5 987.9
00 21.11 ЮВ 4-7
{9}
20 км {дождь} 10/10 360 м
[Sc]
+4.5 +3.5 93 0 0 1009.3 985.8
03 21.11 ЮВ 4-7
{9}
20 км 10/0
[Ac und]
+2.6 +1.3 91 -2 -2 1007.4 983.7 +2.5 3
06 21.11 ЮВ 3-7
{9}
20 км 10/3 600 м
[Cu med, cong Ac trans Ci]
+1.5 +0.1 90 -3 -3 1007.6 983.8 +1.2
09 21.11 ЮВ 2-6
{9}
20 км 10/1 600 м
[Sc Ac trans Cc]
+3.2 +0.8 84 0 +1 1006.5 982.9
12 21.11 ЮВ 3-5
{6}
10 км 10/10 480 м
[Sc]
+3.6 +1.8 88 -0 -0 1005.9 982.4
15 21.11 ЮВ 2-5
{6}
10 км слабый дождь 10/10 570 м
[Sc]
+3.2 +1.4 88 0 0 1005.8 982.3 +4.2 0.3
18 21.11 ЮВ 3-5
{6}
10 км {дождь} 10/10 540 м
[Sc]
+2.6 +1.0 89 -2 -2 1005.5 981.9
21 21.11 ЮВ 2-4
{7}
20 км 10/10 420 м
[Sc]
+2.0 +0.7 91 -1 -1 1005.4 981.8
00 22.11 В 1-2
{4}
20 км 8/0
[Ci fib]
+0.6 -0.5 92 -1 -1 1005.7 982.0
03 22.11 В 3-5
{5}
20 км 10/0
[Ac trans Ci fib]
-0.4 -1.3 94 -5 -5 1005.4 981.6 -0.6 0.0
06 22.11 В 4-6
{6}
20 км 10/0
[Ac trans Ci fib]
-0.7 -1.0 98 -7 -6 1004.5 980.7 -0.9
09 22.11 ЮВ 2-5
{7}
20 км 10/0
[Ac trans Ci]
+1.8 -0.7 83 -1 -1 1004.1 980.4
12 22.11 В 3-5
{7}
20 км 10/4 300 м
[Sc Ac trans Ci fib]
+1.5 -0.2 88 -3 -3 1003.0 979.3
15 22.11 В 4-6
{6}
20 км 10/5 300 м
[Sc Ac trans Ci fib]
+1.1 0.0 92 -4 -4 1003.1 979.4 +2.0
18 22.11 ЮВ 2-3
{7}
10 км 10/10 420 м
[Sc]
+1.4 +0.6 94 -2 -2 1003.1 979.4
21 22.11 ЮВ 1-2
{5}
4000 м дымка 10/10 330 м
[St]
+1.5 +0.7 94 -0 -0 1003.2 979.5
00 23.11 С 1-1
{2}
2000 м дымка 10/10 300 м
[St]
+1.5 +1.0 96 -1 -1 1003.4 979.7
03 23.11 СЗ 2-3
{3}
500 м туман {дождь} ?/? +1.3 +1.0 98 -2 -2 1003.8 980.1 +1.3 1
06 23.11 СЗ 4-5
{5}
2000 м слабый снег {дождь} 10/10 300 м
[Sc]
+0.1 -0.5 96 -6 -6 1005.7 982.0
09 23.11 СЗ 4-5
{6}
2000 м дымка {снег} 10/10 300 м
[St]
+0.2 -0.4 96 -5 -5 1007.5 983.6
12 23.11 СЗ 4-6
{7}
10 км в посл. час снег 10/10 360 м
[Sc]
-0.7 -1.4 95 -7 -7 1009.9 985.9
15 23.11 СЗ 5-6
{6}
4000 м слабый снег 10/10 360 м
[Sc]
-1.2 -2.2 93 -8 -8 1012.6 988.4 +1.6 5
18 23.11 СЗ 4-6
{7}
20 км {снег} 10/10 400 м
[Sc]
-2.1 -3.0 94 -8 -8 1015.5 991.2
21 23.11 СЗ 3-4
{6}
20 км 10/10 360 м
[Sc]
-2.2 -3.1 94 -7 -7 1017.9 993.5
00 24.11 СЗ 3-4
{5}
20 км 10/10 360 м
[Sc]
-2.5 -3.4 94 -8 -8 1019.7 995.3
03 24.11 СЗ 4-5
{5}
20 км 10/10 420 м
[Sc]
-3.1 -4.1 93 -9 -9 1020.9 996.4 -3.1 0.8 3
06 24.11 СЗ 4-5
{6}
10 км 10/10 360 м
[Sc]
-3.1 -4.1 93 -9 -9 1021.1 996.6 -3.4

 

Местоположение метеостанции Большое Болдино (Нижегородская область, Россия): широта 55.02 долгота 45.32 высота над уровнем моря 192 м.

В архиве по умолчанию представлена погода в Большом Болдино за последнюю неделю. Архивные данные за месяц целиком и за предыдущие месяцы, начиная с января 2011 года, Вы можете получить, выбрав интересующий диапазон дат из раскрывающегося списка и нажав кнопку "Ввод!".

Внимание! Время в таблицах - всемирное. Для получения местного времени необходимо прибавить поправку, которая в Большом Болдино равна 3 ч.

Смотрите также архив погоды в соседних городах и на ближайших метеорологических станциях:

Погода в Лукоянове (Нижегородская область, Россия) (52 км)
Погода в Сергаче (Нижегородская область, Россия) (58 км)
Погода в Порецком (Чувашия, Россия) (67 км)
Погода в Алатыре (Чувашия, Россия) (84 км)
Погода в Саранске (Мордовия, Россия) (99 км)
Погода в Больших Березниках (Мордовия, Россия) (104 км)
Погода в Арзамасе (Нижегородская область, Россия) (105 км)
Погода в Сурском (Ульяновская область, Россия) (107 км)
Погода в Лысково (Нижегородская область, Россия) (112 км)
Погода в Дальнем Константиново (Нижегородская область, Россия) (117 км)

Пояснения к столбцам:

Ветер - указаны скорость ветра в м/с - средняя за 10 мин, порывы в срок и между сроками (в фигурных скобках) и направление, откуда дует ветер: С - северный, СВ - северо-восточный, В - восточный, ЮВ - юго-восточный, Ю - южный, ЮЗ - юго-западный, З - западный, СЗ - северо-западный.
Видимость - горизонтальная дальность видимости в метрах или километрах. При видимости от 1 до 10 км при отсутствии осадков обычно наблюдается дымка, при ухудшении видимости до 1 км и менее - туман. В сухую погоду видимость может ухудшаться дымом, пылью или мглою.
Явления - указаны атмосферные явления, наблюдавшиеся в срок или в последний час перед сроком; фигурными скобками обозначены явления, наблюдавшиеся между сроками (за 1-3 часа до срока); квадратными скобками обозначены град или гололедные отложения с указанием их диаметра в мм.
Облачность - указаны через наклонную черту общая и нижняя облачность в баллах и высота нижней границы облаков в метрах; квадратными скобками обозначены формы облаков: Ci - перистые, Cs - перисто-слоистые, Cc - перисто-кучевые, Ac - высококучевые, As - высокослоистые, Sc - слоисто-кучевые, Ns - слоисто-дождевые, Cu - кучевые, Cb - кучево-дождевые. Подробнее классификацию облаков см. в Атласе облаков (PDF).
T - Температура воздуха - температура, измеренная на высоте 2 м над землей.
Td - Температура точки росы - температура, при понижении до которой содержащийся в воздухе водяной пар достигнет насыщения.
f - Относительная влажность воздуха - влажноcть воздуха, измеренная на высоте 2 м над землей.
Te - Эффективная температура - температура, которую ощущает одетый по сезону человек в тени. Характеристика душности погоды. При расчете учитывается влияние влажности воздуха и скорости ветра на теплоощущения человека.
Tes - Эффективная температура на солнце - температура, которую ощущает человек, с поправкой на солнечный нагрев. Характеристика знойности погоды. Зависит от высоты солнца над горизонтом, облачности и скорости ветра. Ночью, в пасмурную погоду, а также при ветре 12 м/с и более поправка равна нулю.
P - Атмосферное давление - приведенное к уровню моря атмосферное давление.
Po - Атмосферное давление - измеренное на уровне метеостанции атмосферное давление.
Tmin - Минимальная температура - минимум температуры воздуха на высоте 2 м над землей.
Tmax - Максимальная температура - максимум температуры воздуха на высоте 2 м над землей.
R - Количество осадков - Количество выпавших осадков за период времени, мм. При наведении курсора мыши на число - период времени, за который выпало указанное количество осадков.
R24 - Количество осадков - Количество выпавших осадков за 24 часа, мм.
S - Снежный покров - Высота снежного покрова, см. При наведении курсора мыши на число - состояние снежного покрова и степень покрытия местности в баллах.